[[{"header":{"parameterUnit":"m.s-1","parameterCategory":1,"la1":30.2991,"la2":30.254,"lo1":-89.0895,"lo2":-89.0444,"dy":0.0017,"dx":0.0017,"nx":28,"ny":28,"refTime":"2023-09-21T03:00:00:Z","depth":0,"parameterNumber":2,"parameterNumberName":"U-component_of_WINDS"},"data":[0,0,0,0,0,0,0,0,0,0,0,0,0,0,0,0,0,0,0,0,0,0,0,0,0,0,0,0,0,0,0,0,0,0,0,0,0,0,0,0,0,0,0,0,0,0,0,0,0,0,0,0,0,0,0,0,0,0,-4.2489,-4.2489,0,-4.2536,-4.2537,-4.2537,-4.2375,-4.237,-4.2365,-4.236,-4.2411,-4.2417,-4.2422,0,0,0,0,0,0,0,0,0,0,0,0,0,-4.2258,-4.2263,-4.2489,-4.2489,-4.249,-4.2536,-4.2537,-4.2538,-4.2375,-4.2369,-4.2363,-4.2358,-4.2409,-4.2416,-4.2423,0,0,0,0,0,0,0,0,0,0,0,0,0,-4.2337,-4.2265,-4.2489,-4.2415,-4.2408,-4.2536,-4.2537,-4.2538,-4.2377,-4.2369,-4.2362,-4.2355,-4.2407,-4.2415,-4.2424,-4.2626,0,0,-4.2451,-4.2455,0,0,0,0,0,0,0,0,-4.2333,-4.2346,-4.2425,-4.242,-4.2413,-4.2442,-4.2474,-4.2567,-4.2379,-4.2389,-4.236,-4.2351,-4.2427,-4.2434,-4.2459,-4.2628,-4.2631,-4.2452,-4.2457,-4.2461,-4.2464,0,0,0,0,0,0,0,-4.2328,-4.2343,-4.2508,-4.2426,-4.2419,-4.2379,-4.2382,-4.2491,-4.2449,-4.2387,-4.2376,-4.2383,-4.2423,-4.2451,-4.2459,-4.2631,-4.2452,-4.246,-4.2465,-4.2468,-4.2967,-4.2975,0,0,0,0,0,0,-4.2332,-4.234,-4.2506,-4.2509,-4.2354,-4.2389,-4.2393,-4.244,-4.2447,-4.2441,-4.239,-4.2376,-4.2439,-4.2449,-4.246,-4.2696,-4.2461,-4.2469,-4.2474,-4.2959,-4.2969,-4.2978,0,0,0,0,0,0,-4.2328,-4.2348,-4.2504,-4.2421,-4.2438,-4.2401,-4.2456,-4.2445,-4.2473,-4.2449,-4.2441,-4.2426,-4.2434,-4.2448,-4.2586,-4.2696,-4.2473,-4.2481,-4.295,-4.2962,-4.2973,-4.3171,0,0,0,0,0,0,-4.2322,-4.2348,-4.2424,-4.2424,-4.2443,-4.2629,-4.2462,-4.2451,-4.2489,-4.2471,-4.2481,-4.2476,-4.2429,-4.2573,-4.2594,-4.2704,-4.2488,-4.294,-4.2956,-4.297,-4.3155,-4.3189,-4.3218,0,0,0,0,0,-4.2314,-4.2479,-4.2429,-4.245,-4.2538,-4.2636,-4.2647,-4.2589,-4.2498,-4.2575,-4.2559,-4.2475,-4.268,-4.2589,-4.2611,-4.2725,-4.2933,-4.2951,-4.2968,-4.3141,-4.3182,-4.3217,0,0,0,0,0,0,-4.2494,-4.2477,-4.2422,-4.2592,-4.2616,-4.2608,-4.2703,-4.2635,-4.2687,-4.2668,-4.2595,-4.2599,-4.275,-4.2751,-4.2649,-4.2921,-4.2791,-4.2814,-4.2914,-4.2953,-4.2984,-4.2981,-4.2496,0,0,0,0,0,-4.2553,-4.2634,-4.2615,-4.2767,-4.2782,-4.2741,-4.2781,-4.2735,-4.2758,-4.2768,-4.2762,-4.2788,-4.2857,-4.2905,-4.2968,-4.3154,-4.3154,-4.3244,-4.3275,-4.3301,-4.3322,-4.3419,-4.3459,-4.3036,-4.3036,-4.3036,0,0,-4.2676,-4.2677,-4.2733,-4.2803,-4.2816,-4.2902,-4.2751,-4.2848,-4.291,-4.2782,-4.2912,-4.2909,-4.2933,-4.3095,-4.3166,-4.3101,-4.3438,-4.3323,-4.3344,-4.3351,-4.3442,-4.3482,-4.3517,-4.3048,-4.3046,-4.3044,0,0,-4.2945,-4.2954,-4.308,-4.3097,-4.3119,-4.3091,-4.3121,-4.3123,-4.3116,-4.3245,-4.315,-4.3224,-4.3346,-4.3367,-4.3393,-4.3669,-4.3594,-4.3691,-4.3855,-4.3951,-4.3984,-4.4013,-4.4111,-4.4147,-4.3712,-4.3713,-4.3713,0,-4.3096,-4.322,-4.3154,-4.3258,-4.3291,-4.3178,-4.3305,-4.3325,-4.3367,-4.3393,-4.3319,-4.3469,-4.3477,-4.3643,-4.371,-4.3735,-4.3768,-4.369,-4.3985,-4.4013,-4.404,-4.4132,-4.4169,-4.3724,-4.3723,-4.3722,-4.3721,0,-4.3404,-4.3492,-4.3591,-4.3634,-4.3678,-4.3794,-4.3745,-4.3798,-4.3748,-4.3727,-4.3859,-4.3865,-4.3927,-4.3962,-4.3915,-4.4121,-4.408,-4.3997,-4.3865,-4.4093,-4.4178,-4.4213,-4.3741,-4.3737,-4.3733,-4.3731,0,0,-4.3788,-4.3792,-4.383,-4.3847,-4.3863,-4.3929,-4.4039,-4.4099,-4.4145,-4.4178,-4.4268,-4.4374,-4.4296,-4.4327,-4.428,-4.4364,-4.4581,-4.427,-4.4269,-4.4328,-4.4809,-4.4872,-4.4914,-4.4532,-4.4538,-4.4543,-4.4807,0,-4.4051,-4.4238,-4.4182,-4.4371,-4.445,-4.4344,-4.4439,-4.446,-4.4443,-4.4509,-4.449,-4.4566,-4.4458,-4.4476,-4.4554,-4.4539,-4.4677,-4.4519,-4.4615,-4.4619,-4.4612,-4.4958,-4.5025,-4.5274,-4.484,-4.4845,-4.485,0,-4.4384,-4.4429,-4.4625,-4.4626,-4.4658,-4.4745,-4.4794,-4.4858,-4.4879,-4.4861,-4.4895,-4.483,-4.4937,-4.4805,-4.4952,-4.4846,-4.4882,-4.488,-4.4888,-4.4895,-4.4748,-4.4975,-4.5351,-4.5389,-4.4902,-4.4898,-4.4894,0,-4.4644,-4.4753,-4.4884,-4.4903,-4.4908,-4.4971,-4.4976,-4.4989,-4.5029,-4.5072,-4.5097,-4.5153,-4.5184,-4.5229,-4.5181,-4.5089,-4.5336,-4.5199,-4.5324,-4.5325,-4.5381,-4.5378,-4.5769,-4.5405,-4.5404,-4.5403,-4.5403,0,-4.4944,-4.5068,-4.5001,-4.5082,-4.5218,-4.5152,-4.5288,-4.5281,-4.5294,-4.5371,-4.5283,-4.5358,-4.529,-4.5359,-4.5323,-4.545,-4.5465,-4.5453,-4.5442,-4.5461,-4.5463,-4.5484,-4.5465,-4.5413,-4.5411,-4.5409,-4.5407,0,-4.5257,-4.5217,-4.5353,-4.5346,-4.5347,-4.5448,-4.5442,-4.5516,-4.5493,-4.5592,-4.5612,-4.5576,-4.5652,-4.5609,-4.5688,-4.5663,-4.5828,-4.5794,-4.5821,-4.5812,-4.5939,-4.5927,-4.6356,-4.6409,-4.6012,-4.6016,-4.6019,0,-4.5451,-4.5544,-4.5547,-4.5592,-4.5603,-4.5677,-4.5716,-4.5655,-4.5699,-4.5729,-4.58,-4.5868,-4.592,-4.6047,-4.6028,-4.6088,-4.6053,-4.62,-4.6062,-4.6078,-4.6055,-4.605,-4.6059,-4.6228,-4.6232,-4.6236,-4.6239,0,-4.58,-4.5775,-4.5834,-4.5888,-4.5937,-4.5976,-4.6007,-4.6049,-4.5988,-4.6043,-4.6119,-4.6159,-4.6238,-4.6308,-4.6358,-4.6363,-4.6292,-4.6283,-4.6314,-4.6335,-4.6347,-4.6342,-4.5897,-4.6273,-4.627,-4.6267,-4.6266,-4.6264,-4.6058,-4.6136,-4.615,-4.6219,-4.6236,-4.6267,-4.6336,-4.6321,-4.6384,-4.6443,-4.6403,-4.6494,-4.6511,-4.6571,-4.6586,-4.6655,-4.6597,-4.6643,-4.6655,-4.6667,-4.6684,-4.6336,-4.6665,-4.6664,-4.6663,-4.6662,-4.6661,0,-4.6402,-4.6405,-4.6469,-4.6516,-4.657,-4.6497,-4.6528,-4.6579,-4.6659,-4.6681,-4.6733,-4.6821,-4.6887,-4.6873,-4.6933,-4.6992,-4.696,-4.701,-4.7004,-4.7007,-4.6733,-4.67,-4.7034,-4.7034,-4.7034,-4.7034,-4.7034,-4.7033,-4.6587,-4.6713,-4.669,-4.6824,-4.6826,-4.6914,-4.6938,-4.6966,-4.6983,-4.7085,-4.7139,-4.7129,-4.7137,-4.7196,-4.7254,-4.7248,-4.7274,-4.7335,-4.7318,-4.7063,-4.7026,-4.6991,-4.6959,-4.7342,-4.7342,-4.7585,-4.7587,-4.7589]},{"header":{"parameterUnit":"m.s-1","parameterCategory":1,"la1":30.2991,"la2":30.254,"lo1":-89.0895,"lo2":-89.0444,"dy":0.0017,"dx":0.0017,"nx":28,"ny":28,"refTime":"2023-09-21T03:00:00:Z","depth":0,"parameterNumber":3,"parameterNumberName":"V-component_of_WINDS"},"data":[0,0,0,0,0,0,0,0,0,0,0,0,0,0,0,0,0,0,0,0,0,0,0,0,0,0,0,0,0,0,0,0,0,0,0,0,0,0,0,0,0,0,0,0,0,0,0,0,0,0,0,0,0,0,0,0,0,0,-2.3671,-2.3671,0,-2.3713,-2.3714,-2.3714,-2.3715,-2.3714,-2.3714,-2.3713,-2.3754,-2.3756,-2.3757,0,0,0,0,0,0,0,0,0,0,0,0,0,-2.3584,-2.3586,-2.367,-2.3671,-2.3672,-2.3713,-2.3714,-2.3715,-2.3715,-2.3714,-2.3713,-2.3713,-2.3754,-2.3755,-2.3757,0,0,0,0,0,0,0,0,0,0,0,0,0,-2.3624,-2.3587,-2.367,-2.3677,-2.3678,-2.3713,-2.3714,-2.3715,-2.3715,-2.3714,-2.3713,-2.3712,-2.3753,-2.3755,-2.3758,-2.3789,0,0,-2.3765,-2.3766,0,0,0,0,0,0,0,0,-2.3622,-2.3627,-2.3675,-2.3676,-2.3678,-2.3708,-2.3699,-2.3739,-2.3715,-2.3701,-2.3713,-2.3712,-2.3739,-2.3743,-2.3752,-2.3791,-2.3793,-2.3765,-2.3767,-2.3768,-2.3768,0,0,0,0,0,0,0,-2.3619,-2.3625,-2.3687,-2.3676,-2.3677,-2.3676,-2.3681,-2.3706,-2.3724,-2.3702,-2.3702,-2.3707,-2.374,-2.375,-2.3753,-2.3793,-2.3765,-2.3767,-2.3769,-2.377,-2.3857,-2.3858,0,0,0,0,0,0,-2.3615,-2.3623,-2.3686,-2.3689,-2.3647,-2.3678,-2.3684,-2.3699,-2.3724,-2.3727,-2.3708,-2.3707,-2.3746,-2.3751,-2.3755,-2.3792,-2.3768,-2.377,-2.3771,-2.3856,-2.3857,-2.3858,0,0,0,0,0,0,-2.3614,-2.3621,-2.3684,-2.3656,-2.3664,-2.3681,-2.3698,-2.37,-2.3711,-2.3728,-2.3731,-2.3716,-2.3746,-2.3751,-2.378,-2.3793,-2.3771,-2.3773,-2.3855,-2.3856,-2.3857,-2.3866,0,0,0,0,0,0,-2.3611,-2.362,-2.3634,-2.3656,-2.3665,-2.371,-2.3699,-2.3702,-2.3715,-2.3715,-2.3736,-2.3739,-2.3746,-2.3776,-2.3782,-2.3796,-2.3775,-2.3854,-2.3855,-2.3857,-2.3865,-2.3867,-2.387,0,0,0,0,0,-2.3608,-2.3634,-2.3634,-2.3642,-2.3682,-2.3711,-2.3716,-2.3724,-2.3716,-2.3729,-2.374,-2.3738,-2.3791,-2.3779,-2.3786,-2.3801,-2.3853,-2.3855,-2.3857,-2.3863,-2.3867,-2.387,0,0,0,0,0,0,-2.3612,-2.3637,-2.3638,-2.3672,-2.3689,-2.3711,-2.3727,-2.3728,-2.3747,-2.3745,-2.3754,-2.3758,-2.3786,-2.3796,-2.3783,-2.3831,-2.3821,-2.3824,-2.3823,-2.3827,-2.3829,-2.3826,-2.3777,0,0,0,0,0,-2.3617,-2.3639,-2.366,-2.3688,-2.3697,-2.371,-2.3723,-2.3728,-2.3746,-2.3753,-2.3766,-2.3782,-2.3802,-2.3815,-2.3835,-2.3866,-2.387,-2.3879,-2.3882,-2.3884,-2.3886,-2.3902,-2.3906,-2.3864,-2.3864,-2.3864,0,0,-2.3627,-2.3644,-2.3657,-2.3689,-2.3703,-2.3724,-2.3717,-2.374,-2.3755,-2.3756,-2.3784,-2.3794,-2.3812,-2.3842,-2.3856,-2.3851,-2.3898,-2.3886,-2.3888,-2.3889,-2.3904,-2.3908,-2.3911,-2.3866,-2.3865,-2.3865,0,0,-2.3657,-2.3672,-2.3697,-2.3711,-2.3732,-2.3741,-2.3746,-2.3768,-2.3774,-2.3803,-2.3803,-2.3821,-2.3855,-2.3868,-2.3879,-2.3912,-2.391,-2.3918,-2.3931,-2.3946,-2.3949,-2.3952,-2.3962,-2.3966,-2.392,-2.392,-2.392,0,-2.3667,-2.37,-2.3709,-2.3732,-2.3745,-2.3747,-2.3771,-2.3784,-2.381,-2.3818,-2.3813,-2.3855,-2.3868,-2.39,-2.3908,-2.3917,-2.3922,-2.3915,-2.3948,-2.3951,-2.3954,-2.3964,-2.3968,-2.3921,-2.3921,-2.3921,-2.3921,0,-2.371,-2.3733,-2.375,-2.3776,-2.3791,-2.3814,-2.3825,-2.3839,-2.3842,-2.385,-2.3877,-2.3893,-2.3915,-2.3923,-2.3926,-2.3954,-2.3951,-2.3947,-2.3937,-2.3958,-2.3967,-2.3971,-2.3922,-2.3922,-2.3921,-2.3921,0,0,-2.3744,-2.3773,-2.3779,-2.379,-2.3813,-2.383,-2.3853,-2.3874,-2.3885,-2.3903,-2.3921,-2.3949,-2.3945,-2.3958,-2.3962,-2.3975,-2.3998,-2.397,-2.397,-2.3973,-2.4028,-2.403,-2.4035,-2.3997,-2.3998,-2.3999,-2.4026,0,-2.3775,-2.3816,-2.3824,-2.3859,-2.3879,-2.388,-2.3899,-2.3915,-2.3923,-2.394,-2.3949,-2.3968,-2.3963,-2.397,-2.3983,-2.3992,-2.4009,-2.3991,-2.4013,-2.4013,-2.4007,-2.404,-2.4042,-2.4068,-2.403,-2.4031,-2.4031,0,-2.3817,-2.3836,-2.3873,-2.3891,-2.39,-2.3917,-2.3937,-2.3954,-2.397,-2.3975,-2.3988,-2.3991,-2.4012,-2.4001,-2.403,-2.4018,-2.4027,-2.4033,-2.4034,-2.4035,-2.4023,-2.4041,-2.4076,-2.4079,-2.4037,-2.4037,-2.4036,0,-2.3836,-2.387,-2.3897,-2.3906,-2.3929,-2.394,-2.395,-2.3966,-2.3978,-2.3995,-2.4002,-2.4021,-2.4031,-2.4045,-2.4052,-2.4043,-2.4079,-2.4069,-2.4082,-2.4082,-2.409,-2.4089,-2.4125,-2.4097,-2.4097,-2.4097,-2.4097,0,-2.3869,-2.3891,-2.3905,-2.3921,-2.3945,-2.3953,-2.3977,-2.3986,-2.4,-2.4016,-2.4018,-2.4034,-2.4042,-2.4058,-2.4064,-2.4085,-2.409,-2.4094,-2.4095,-2.4093,-2.4092,-2.4099,-2.4097,-2.4098,-2.4098,-2.4098,-2.4098,0,-2.3894,-2.3905,-2.3933,-2.3952,-2.3957,-2.3974,-2.3989,-2.4004,-2.4012,-2.4033,-2.4038,-2.405,-2.4069,-2.4077,-2.41,-2.4104,-2.4128,-2.4129,-2.4123,-2.4123,-2.4135,-2.4133,-2.4176,-2.4182,-2.4151,-2.4151,-2.4151,0,-2.3915,-2.3932,-2.3952,-2.3964,-2.3974,-2.3992,-2.4005,-2.4012,-2.4025,-2.4044,-2.4056,-2.4075,-2.409,-2.412,-2.413,-2.4147,-2.4147,-2.4161,-2.415,-2.4147,-2.4146,-2.4144,-2.4145,-2.4163,-2.4163,-2.4163,-2.4163,0,-2.3948,-2.3952,-2.397,-2.399,-2.4004,-2.4019,-2.4034,-2.4043,-2.4053,-2.4067,-2.4086,-2.4098,-2.4122,-2.414,-2.4158,-2.4166,-2.4166,-2.4167,-2.4171,-2.4169,-2.4164,-2.4165,-2.4127,-2.4166,-2.4166,-2.4165,-2.4165,-2.4165,-2.3971,-2.3985,-2.4002,-2.4021,-2.4033,-2.4047,-2.4061,-2.407,-2.4087,-2.4107,-2.411,-2.4131,-2.4145,-2.4168,-2.4177,-2.4192,-2.4189,-2.4195,-2.4196,-2.4197,-2.4197,-2.4162,-2.4196,-2.4196,-2.4196,-2.4196,-2.4196,0,-2.4004,-2.4014,-2.4032,-2.4052,-2.4067,-2.4066,-2.4082,-2.4094,-2.4113,-2.4126,-2.4141,-2.4163,-2.418,-2.4191,-2.4208,-2.4218,-2.4218,-2.4222,-2.4221,-2.4222,-2.42,-2.4194,-2.4221,-2.4221,-2.4221,-2.4221,-2.4221,-2.4221,-2.4022,-2.4046,-2.4052,-2.4081,-2.4091,-2.4111,-2.412,-2.4132,-2.4143,-2.4167,-2.4181,-2.4189,-2.4201,-2.4218,-2.4234,-2.4236,-2.4242,-2.4246,-2.4248,-2.4227,-2.4224,-2.4221,-2.4216,-2.4247,-2.4247,-2.4269,-2.4269,-2.4269]}]]